Year,Month,Day,Hour,Minute,Value (Times are PST for temperature in C)
2008,07,01,00,00,16.80
2008,07,01,00,01,16.80
2008,07,01,00,02,16.80
2008,07,01,00,03,16.70
2008,07,01,00,04,16.70
2008,07,01,00,05,16.70
2008,07,01,00,06,16.70
2008,07,01,00,07,16.70
2008,07,01,00,08,16.60
2008,07,01,00,09,16.60
2008,07,01,00,10,16.60
2008,07,01,00,11,16.60
2008,07,01,00,12,16.50
2008,07,01,00,13,16.40
2008,07,01,00,14,16.40
2008,07,01,00,15,16.40
2008,07,01,00,16,16.40
2008,07,01,00,17,16.40
2008,07,01,00,18,16.40
2008,07,01,00,19,16.40
2008,07,01,00,20,16.40
2008,07,01,00,21,16.40
2008,07,01,00,22,16.40
2008,07,01,00,23,16.40
2008,07,01,00,24,16.40
2008,07,01,00,25,16.40
2008,07,01,00,26,16.40
2008,07,01,00,27,16.40
2008,07,01,00,28,16.40
2008,07,01,00,29,16.40
2008,07,01,00,30,16.40
2008,07,01,00,31,16.40
2008,07,01,00,32,16.40
2008,07,01,00,33,16.40
2008,07,01,00,34,16.40
2008,07,01,00,35,16.40
2008,07,01,00,36,16.40
2008,07,01,00,37,16.40
2008,07,01,00,38,16.40
2008,07,01,00,39,16.40
2008,07,01,00,40,16.40
2008,07,01,00,41,16.40
2008,07,01,00,42,16.40
2008,07,01,00,43,16.40
2008,07,01,00,44,16.40
2008,07,01,00,45,16.30
2008,07,01,00,46,16.30
2008,07,01,00,47,16.30
2008,07,01,00,48,16.30
2008,07,01,00,49,16.30
2008,07,01,00,50,16.30
2008,07,01,00,51,16.20
2008,07,01,00,52,16.20
2008,07,01,00,53,16.20
2008,07,01,00,54,16.20
2008,07,01,00,55,16.20
2008,07,01,00,56,16.10
2008,07,01,00,57,16.10
2008,07,01,00,58,16.00
2008,07,01,00,59,15.90
2008,07,01,01,00,15.80
2008,07,01,01,01,15.80
2008,07,01,01,02,15.70
2008,07,01,01,03,15.70
2008,07,01,01,04,15.60
2008,07,01,01,05,15.50
2008,07,01,01,06,15.50
2008,07,01,01,07,15.40
2008,07,01,01,08,15.40
2008,07,01,01,09,15.30
2008,07,01,01,10,15.30
2008,07,01,01,11,15.30
2008,07,01,01,12,15.20
2008,07,01,01,13,15.20
2008,07,01,01,14,15.20
2008,07,01,01,15,15.20
2008,07,01,01,16,15.10
2008,07,01,01,17,15.10
2008,07,01,01,18,15.10
2008,07,01,01,19,15.00
2008,07,01,01,20,15.00
2008,07,01,01,21,15.00
2008,07,01,01,22,15.00
2008,07,01,01,23,15.00
2008,07,01,01,24,14.90
2008,07,01,01,25,14.90
2008,07,01,01,26,14.90
2008,07,01,01,27,14.90
2008,07,01,01,28,14.90
2008,07,01,01,29,14.90
2008,07,01,01,30,14.80
2008,07,01,01,31,14.80
2008,07,01,01,32,14.80
2008,07,01,01,33,14.80
2008,07,01,01,34,14.80
2008,07,01,01,35,14.80
2008,07,01,01,36,14.80
2008,07,01,01,37,14.80
2008,07,01,01,38,14.70
2008,07,01,01,39,14.70
2008,07,01,01,40,14.70
2008,07,01,01,41,14.70
2008,07,01,01,42,14.70
2008,07,01,01,43,14.70
2008,07,01,01,44,14.70
2008,07,01,01,45,14.70
2008,07,01,01,46,14.70
2008,07,01,01,47,14.70
2008,07,01,01,48,14.60
2008,07,01,01,49,14.60
2008,07,01,01,50,14.60
2008,07,01,01,51,14.60
2008,07,01,01,52,14.60
2008,07,01,01,53,14.50
2008,07,01,01,54,14.50
2008,07,01,01,55,14.50
2008,07,01,01,56,14.40
2008,07,01,01,57,14.40
2008,07,01,01,58,14.40
2008,07,01,01,59,14.30
2008,07,01,02,00,14.30
2008,07,01,02,01,14.30
2008,07,01,02,02,14.20
2008,07,01,02,03,14.20
2008,07,01,02,04,14.20
2008,07,01,02,05,14.20
2008,07,01,02,06,14.20
2008,07,01,02,07,14.10
2008,07,01,02,08,14.10
2008,07,01,02,09,14.10
2008,07,01,02,10,14.10
2008,07,01,02,11,14.00
2008,07,01,02,12,14.00
2008,07,01,02,13,14.00
2008,07,01,02,14,13.90
2008,07,01,02,15,13.90
2008,07,01,02,16,13.90
2008,07,01,02,17,13.90
2008,07,01,02,18,13.90
2008,07,01,02,19,13.80
2008,07,01,02,20,13.80
2008,07,01,02,21,13.80
2008,07,01,02,22,13.80
2008,07,01,02,23,13.70
2008,07,01,02,24,13.70
2008,07,01,02,25,13.70
2008,07,01,02,26,13.70
2008,07,01,02,27,13.70
2008,07,01,02,28,13.70
2008,07,01,02,29,13.70
2008,07,01,02,30,13.70
2008,07,01,02,31,13.70
2008,07,01,02,32,13.60
2008,07,01,02,33,13.60
2008,07,01,02,34,13.60
2008,07,01,02,35,13.60
2008,07,01,02,36,13.60
2008,07,01,02,37,13.50
2008,07,01,02,38,13.50
2008,07,01,02,39,13.50
2008,07,01,02,40,13.50
2008,07,01,02,41,13.50
2008,07,01,02,42,13.50
2008,07,01,02,43,13.50
2008,07,01,02,44,13.50
2008,07,01,02,45,13.50
2008,07,01,02,46,13.50
2008,07,01,02,47,13.50
2008,07,01,02,48,13.50
2008,07,01,02,49,13.50
2008,07,01,02,50,13.50
2008,07,01,02,51,13.50
2008,07,01,02,52,13.50
2008,07,01,02,53,13.50
2008,07,01,02,54,13.50
2008,07,01,02,55,13.50
2008,07,01,02,56,13.50
2008,07,01,02,57,13.50
2008,07,01,02,58,13.50
2008,07,01,02,59,13.50
2008,07,01,03,00,13.50
2008,07,01,03,01,13.50
2008,07,01,03,02,13.50
2008,07,01,03,03,13.50
2008,07,01,03,04,13.50
2008,07,01,03,05,13.50
2008,07,01,03,06,13.50
2008,07,01,03,07,13.50
2008,07,01,03,08,13.50
2008,07,01,03,09,13.50
2008,07,01,03,10,13.50
2008,07,01,03,11,13.50
2008,07,01,03,12,13.50
2008,07,01,03,13,13.40
2008,07,01,03,14,13.40
2008,07,01,03,15,13.40
2008,07,01,03,16,13.40
2008,07,01,03,17,13.40
2008,07,01,03,18,13.40
2008,07,01,03,19,13.40
2008,07,01,03,20,13.40
2008,07,01,03,21,13.40
2008,07,01,03,22,13.40
2008,07,01,03,23,13.40
2008,07,01,03,24,13.40
2008,07,01,03,25,13.40
2008,07,01,03,26,13.30
2008,07,01,03,27,13.30
2008,07,01,03,28,13.30
2008,07,01,03,29,13.30
2008,07,01,03,30,13.30
2008,07,01,03,31,13.30
2008,07,01,03,32,13.40
2008,07,01,03,33,13.40
2008,07,01,03,34,13.40
2008,07,01,03,35,13.40
2008,07,01,03,36,13.40
2008,07,01,03,37,13.40
2008,07,01,03,38,13.40
2008,07,01,03,39,13.40
2008,07,01,03,40,13.40
2008,07,01,03,41,13.40
2008,07,01,03,42,13.40
2008,07,01,03,43,13.40
2008,07,01,03,44,13.40
2008,07,01,03,45,13.40
2008,07,01,03,46,13.40
2008,07,01,03,47,13.30
2008,07,01,03,48,13.40
2008,07,01,03,49,13.40
2008,07,01,03,50,13.40
2008,07,01,03,51,13.40
2008,07,01,03,52,13.40
2008,07,01,03,53,13.30
2008,07,01,03,54,13.40
2008,07,01,03,55,13.30
2008,07,01,03,56,13.30
2008,07,01,03,57,13.30
2008,07,01,03,58,13.40
2008,07,01,03,59,13.40
2008,07,01,04,00,13.40
2008,07,01,04,01,13.40
2008,07,01,04,02,13.40
2008,07,01,04,03,13.40
2008,07,01,04,04,13.40
2008,07,01,04,05,13.40
2008,07,01,04,06,13.40
2008,07,01,04,07,13.40
2008,07,01,04,08,13.40
2008,07,01,04,09,13.40
2008,07,01,04,10,13.50
2008,07,01,04,11,13.50
2008,07,01,04,12,13.50
2008,07,01,04,13,13.50
2008,07,01,04,14,13.50
2008,07,01,04,15,13.40
2008,07,01,04,16,13.40
2008,07,01,04,17,13.40
2008,07,01,04,18,13.40
2008,07,01,04,19,13.40
2008,07,01,04,20,13.40
2008,07,01,04,21,13.40
2008,07,01,04,22,13.40
2008,07,01,04,23,13.40
2008,07,01,04,24,13.30
2008,07,01,04,25,13.30
2008,07,01,04,26,13.30
2008,07,01,04,27,13.30
2008,07,01,04,28,13.30
2008,07,01,04,29,13.30
2008,07,01,04,30,13.30
2008,07,01,04,31,13.20
2008,07,01,04,32,13.20
2008,07,01,04,33,13.20
2008,07,01,04,34,13.20
2008,07,01,04,35,13.10
2008,07,01,04,36,13.10
2008,07,01,04,37,13.10
2008,07,01,04,38,13.10
2008,07,01,04,39,13.10
2008,07,01,04,40,13.10
2008,07,01,04,41,13.00
2008,07,01,04,42,13.00
2008,07,01,04,43,13.00
2008,07,01,04,44,13.00
2008,07,01,04,45,13.00
2008,07,01,04,46,13.00
2008,07,01,04,47,12.90
2008,07,01,04,48,12.90
2008,07,01,04,49,12.90
2008,07,01,04,50,12.90
2008,07,01,04,51,12.90
2008,07,01,04,52,12.90
2008,07,01,04,53,12.80
2008,07,01,04,54,12.80
2008,07,01,04,55,12.80
2008,07,01,04,56,12.80
2008,07,01,04,57,12.80
2008,07,01,04,58,12.80
2008,07,01,04,59,12.80
2008,07,01,05,00,12.80
2008,07,01,05,01,12.80
2008,07,01,05,02,12.80
2008,07,01,05,03,12.80
2008,07,01,05,04,12.80
2008,07,01,05,05,12.80
2008,07,01,05,06,12.80
2008,07,01,05,07,12.80
2008,07,01,05,08,12.80
2008,07,01,05,09,12.80
2008,07,01,05,10,12.80
2008,07,01,05,11,12.80
2008,07,01,05,12,12.80
2008,07,01,05,13,12.80
2008,07,01,05,14,12.80
2008,07,01,05,15,12.80
2008,07,01,05,16,12.80
2008,07,01,05,17,12.80
2008,07,01,05,18,12.80
2008,07,01,05,19,12.80
2008,07,01,05,20,12.80
2008,07,01,05,21,12.80
2008,07,01,05,22,12.80
2008,07,01,05,23,12.80
2008,07,01,05,24,12.80
2008,07,01,05,25,12.80
2008,07,01,05,26,12.80
2008,07,01,05,27,12.80
2008,07,01,05,28,12.80
2008,07,01,05,29,12.80
2008,07,01,05,30,12.80
2008,07,01,05,31,12.80
2008,07,01,05,32,12.80
2008,07,01,05,33,12.80
2008,07,01,05,34,12.80
2008,07,01,05,35,12.80
2008,07,01,05,36,12.80
2008,07,01,05,37,12.80
2008,07,01,05,38,12.80
2008,07,01,05,39,12.80
2008,07,01,05,40,12.80
2008,07,01,05,41,12.80
2008,07,01,05,42,12.80
2008,07,01,05,43,12.80
2008,07,01,05,44,12.80
2008,07,01,05,45,12.80
2008,07,01,05,46,12.80
2008,07,01,05,47,12.80
2008,07,01,05,48,12.80
2008,07,01,05,49,12.80
2008,07,01,05,50,12.80
2008,07,01,05,51,12.80
2008,07,01,05,52,12.80
2008,07,01,05,53,12.80
2008,07,01,05,54,12.80
2008,07,01,05,55,12.80
2008,07,01,05,56,12.80
2008,07,01,05,57,12.80
2008,07,01,05,58,12.80
2008,07,01,05,59,12.80
2008,07,01,06,00,12.80
2008,07,01,06,01,12.80
2008,07,01,06,02,12.80
2008,07,01,06,03,12.80
2008,07,01,06,04,12.80
2008,07,01,06,05,12.80
2008,07,01,06,06,12.80
2008,07,01,06,07,12.80
2008,07,01,06,08,12.80
2008,07,01,06,09,12.80
2008,07,01,06,10,12.80
2008,07,01,06,11,12.80
2008,07,01,06,12,12.80
2008,07,01,06,13,12.80
2008,07,01,06,14,12.80
2008,07,01,06,15,12.80
2008,07,01,06,16,12.80
2008,07,01,06,17,12.80
2008,07,01,06,18,12.80
2008,07,01,06,19,12.80
2008,07,01,06,20,12.80
2008,07,01,06,21,12.80
2008,07,01,06,22,12.80
2008,07,01,06,23,12.80
2008,07,01,06,24,12.80
2008,07,01,06,25,12.80
2008,07,01,06,26,12.80
2008,07,01,06,27,12.80
2008,07,01,06,28,12.80
2008,07,01,06,29,12.90
2008,07,01,06,30,12.90
2008,07,01,06,31,12.90
2008,07,01,06,32,12.90
2008,07,01,06,33,12.90
2008,07,01,06,34,12.90
2008,07,01,06,35,12.90
2008,07,01,06,36,12.90
2008,07,01,06,37,12.90
2008,07,01,06,38,12.90
2008,07,01,06,39,13.00
2008,07,01,06,40,13.00
2008,07,01,06,41,13.00
2008,07,01,06,42,13.00
2008,07,01,06,43,13.00
2008,07,01,06,44,13.00
2008,07,01,06,45,13.00
2008,07,01,06,46,13.10
2008,07,01,06,47,13.10
2008,07,01,06,48,13.10
2008,07,01,06,49,13.10
2008,07,01,06,50,13.10
2008,07,01,06,51,13.20
2008,07,01,06,52,13.20
2008,07,01,06,53,13.20
2008,07,01,06,54,13.30
2008,07,01,06,55,13.30
2008,07,01,06,56,13.30
2008,07,01,06,57,13.30
2008,07,01,06,58,13.30
2008,07,01,06,59,13.30
2008,07,01,07,00,13.30
2008,07,01,07,01,13.30
2008,07,01,07,02,13.30
2008,07,01,07,03,13.30
2008,07,01,07,04,13.30
2008,07,01,07,05,13.30
2008,07,01,07,06,13.40
2008,07,01,07,07,13.40
2008,07,01,07,08,13.40
2008,07,01,07,09,13.40
2008,07,01,07,10,13.50
2008,07,01,07,11,13.50
2008,07,01,07,12,13.50
2008,07,01,07,13,13.60
2008,07,01,07,14,13.60
2008,07,01,07,15,13.60
2008,07,01,07,16,13.70
2008,07,01,07,17,13.70
2008,07,01,07,18,13.70
2008,07,01,07,19,13.70
2008,07,01,07,20,13.70
2008,07,01,07,21,13.70
2008,07,01,07,22,13.70
2008,07,01,07,23,13.70
2008,07,01,07,24,13.70
2008,07,01,07,25,13.70
2008,07,01,07,26,13.70
2008,07,01,07,27,13.70
2008,07,01,07,28,13.70
2008,07,01,07,29,13.70
2008,07,01,07,30,13.70
2008,07,01,07,31,13.70
2008,07,01,07,32,13.80
2008,07,01,07,33,13.80
2008,07,01,07,34,13.80
2008,07,01,07,35,13.80
2008,07,01,07,36,13.80
2008,07,01,07,37,13.80
2008,07,01,07,38,13.80
2008,07,01,07,39,13.80
2008,07,01,07,40,13.80
2008,07,01,07,41,13.80
2008,07,01,07,42,13.70
2008,07,01,07,43,13.70
2008,07,01,07,44,13.80
2008,07,01,07,45,13.80
2008,07,01,07,46,13.80
2008,07,01,07,47,13.80
2008,07,01,07,48,13.80
2008,07,01,07,49,13.90
2008,07,01,07,50,13.90
2008,07,01,07,51,13.90
2008,07,01,07,52,13.90
2008,07,01,07,53,13.90
2008,07,01,07,54,13.90
2008,07,01,07,55,13.90
2008,07,01,07,56,13.90
2008,07,01,07,57,13.90
2008,07,01,07,58,13.90
2008,07,01,07,59,14.00
2008,07,01,08,00,14.00
2008,07,01,08,01,14.10
2008,07,01,08,02,14.10
2008,07,01,08,03,14.10
2008,07,01,08,04,14.10
2008,07,01,08,05,14.10
2008,07,01,08,06,14.20
2008,07,01,08,07,14.20
2008,07,01,08,08,14.20
2008,07,01,08,09,14.20
2008,07,01,08,10,14.30
2008,07,01,08,11,14.30
2008,07,01,08,12,14.40
2008,07,01,08,13,14.40
2008,07,01,08,14,14.40
2008,07,01,08,15,14.50
2008,07,01,08,16,14.50
2008,07,01,08,17,14.50
2008,07,01,08,18,14.40
2008,07,01,08,19,14.50
2008,07,01,08,20,14.50
2008,07,01,08,21,14.50
2008,07,01,08,22,14.50
2008,07,01,08,23,14.50
2008,07,01,08,24,14.50
2008,07,01,08,25,14.50
2008,07,01,08,26,14.50
2008,07,01,08,27,14.60
2008,07,01,08,28,14.70
2008,07,01,08,29,14.80
2008,07,01,08,30,14.80
2008,07,01,08,31,14.80
2008,07,01,08,32,14.80
2008,07,01,08,33,14.80
2008,07,01,08,34,14.80
2008,07,01,08,35,14.80
2008,07,01,08,36,14.80
2008,07,01,08,37,14.80
2008,07,01,08,38,14.80
2008,07,01,08,39,14.80
2008,07,01,08,40,14.90
2008,07,01,08,41,14.90
2008,07,01,08,42,15.00
2008,07,01,08,43,15.00
2008,07,01,08,44,14.90
2008,07,01,08,45,14.90
2008,07,01,08,46,14.90
2008,07,01,08,47,14.80
2008,07,01,08,48,14.80
2008,07,01,08,49,14.80
2008,07,01,08,50,14.80
2008,07,01,08,51,14.80
2008,07,01,08,52,14.70
2008,07,01,08,53,14.70
2008,07,01,08,54,14.70
2008,07,01,08,55,14.80
2008,07,01,08,56,14.80
2008,07,01,08,57,14.80
2008,07,01,08,58,14.90
2008,07,01,08,59,14.90
2008,07,01,09,00,15.00
2008,07,01,09,01,14.90
2008,07,01,09,02,14.90
2008,07,01,09,03,14.90
2008,07,01,09,04,14.90
2008,07,01,09,05,14.90
2008,07,01,09,06,14.80
2008,07,01,09,07,14.80
2008,07,01,09,08,14.70
2008,07,01,09,09,14.60
2008,07,01,09,10,14.60
2008,07,01,09,11,14.60
2008,07,01,09,12,14.60
2008,07,01,09,13,14.50
2008,07,01,09,14,14.60
2008,07,01,09,15,14.60
2008,07,01,09,16,14.70
2008,07,01,09,17,14.80
2008,07,01,09,18,14.80
2008,07,01,09,19,14.80
2008,07,01,09,20,14.70
2008,07,01,09,21,14.80
2008,07,01,09,22,14.80
2008,07,01,09,23,14.80
2008,07,01,09,24,14.80
2008,07,01,09,25,14.80
2008,07,01,09,26,14.80
2008,07,01,09,27,14.80
2008,07,01,09,28,14.80
2008,07,01,09,29,14.90
2008,07,01,09,30,14.90
2008,07,01,09,31,15.00
2008,07,01,09,32,15.00
2008,07,01,09,33,15.10
2008,07,01,09,34,15.10
2008,07,01,09,35,15.20
2008,07,01,09,36,15.30
2008,07,01,09,37,15.30
2008,07,01,09,38,15.40
2008,07,01,09,39,15.40
2008,07,01,09,40,15.40
2008,07,01,09,41,15.40
2008,07,01,09,42,15.40
2008,07,01,09,43,15.40
2008,07,01,09,44,15.30
2008,07,01,09,45,15.30
2008,07,01,09,46,15.30
2008,07,01,09,47,15.20
2008,07,01,09,48,15.10
2008,07,01,09,49,15.10
2008,07,01,09,50,15.10
2008,07,01,09,51,15.10
2008,07,01,09,52,15.10
2008,07,01,09,53,15.10
2008,07,01,09,54,15.10
2008,07,01,09,55,15.10
2008,07,01,09,56,15.10
2008,07,01,09,57,15.10
2008,07,01,09,58,15.10
2008,07,01,09,59,15.10
2008,07,01,10,00,15.20
2008,07,01,10,01,15.30
2008,07,01,10,02,15.30
2008,07,01,10,03,15.30
2008,07,01,10,04,15.30
2008,07,01,10,05,15.20
2008,07,01,10,06,15.30
2008,07,01,10,07,15.30
2008,07,01,10,08,15.30
2008,07,01,10,09,15.30
2008,07,01,10,10,15.30
2008,07,01,10,11,15.40
2008,07,01,10,12,15.50
2008,07,01,10,13,15.50
2008,07,01,10,14,15.50
2008,07,01,10,15,15.40
2008,07,01,10,16,15.40
2008,07,01,10,17,15.40
2008,07,01,10,18,15.40
2008,07,01,10,19,15.30
2008,07,01,10,20,15.20
2008,07,01,10,21,15.20
2008,07,01,10,22,15.30
2008,07,01,10,23,15.30
2008,07,01,10,24,15.30
2008,07,01,10,25,15.30
2008,07,01,10,26,15.30
2008,07,01,10,27,15.40
2008,07,01,10,28,15.40
2008,07,01,10,29,15.50
2008,07,01,10,30,15.40
2008,07,01,10,31,15.40
2008,07,01,10,32,15.40
2008,07,01,10,33,15.30
2008,07,01,10,34,15.30
2008,07,01,10,35,15.30
2008,07,01,10,36,15.40
2008,07,01,10,37,15.40
2008,07,01,10,38,15.40
2008,07,01,10,39,15.50
2008,07,01,10,40,15.50
2008,07,01,10,41,15.50
2008,07,01,10,42,15.50
2008,07,01,10,43,15.50
2008,07,01,10,44,15.50
2008,07,01,10,45,15.40
2008,07,01,10,46,15.40
2008,07,01,10,47,15.50
2008,07,01,10,48,15.40
2008,07,01,10,49,15.40
2008,07,01,10,50,15.40
2008,07,01,10,51,15.40
2008,07,01,10,52,15.40
2008,07,01,10,53,15.40
2008,07,01,10,54,15.50
2008,07,01,10,55,15.60
2008,07,01,10,56,15.70
2008,07,01,10,57,15.70
2008,07,01,10,58,15.70
2008,07,01,10,59,15.70
2008,07,01,11,00,15.70
2008,07,01,11,01,15.80
2008,07,01,11,02,15.80
2008,07,01,11,03,15.90
2008,07,01,11,04,16.00
2008,07,01,11,05,16.20
2008,07,01,11,06,16.20
2008,07,01,11,07,16.30
2008,07,01,11,08,16.30
2008,07,01,11,09,16.20
2008,07,01,11,10,16.20
2008,07,01,11,11,16.20
2008,07,01,11,12,16.20
2008,07,01,11,13,16.20
2008,07,01,11,14,16.20
2008,07,01,11,15,16.20
2008,07,01,11,16,16.20
2008,07,01,11,17,16.20
2008,07,01,11,18,16.30
2008,07,01,11,19,16.30
2008,07,01,11,20,16.40
2008,07,01,11,21,16.40
2008,07,01,11,22,16.30
2008,07,01,11,23,16.20
2008,07,01,11,24,16.20
2008,07,01,11,25,16.20
2008,07,01,11,26,16.10
2008,07,01,11,27,16.00
2008,07,01,11,28,16.00
2008,07,01,11,29,16.10
2008,07,01,11,30,16.20
2008,07,01,11,31,16.20
2008,07,01,11,32,16.20
2008,07,01,11,33,16.20
2008,07,01,11,34,16.30
2008,07,01,11,35,16.40
2008,07,01,11,36,16.40
2008,07,01,11,37,16.60
2008,07,01,11,38,16.70
2008,07,01,11,39,16.80
2008,07,01,11,40,16.90
2008,07,01,11,41,17.00
2008,07,01,11,42,17.00
2008,07,01,11,43,17.10
2008,07,01,11,44,17.10
2008,07,01,11,45,17.00
2008,07,01,11,46,16.90
2008,07,01,11,47,16.80
2008,07,01,11,48,16.90
2008,07,01,11,49,17.00
2008,07,01,11,50,17.10
2008,07,01,11,51,17.10
2008,07,01,11,52,17.10
2008,07,01,11,53,17.00
2008,07,01,11,54,17.10
2008,07,01,11,55,17.10
2008,07,01,11,56,17.10
2008,07,01,11,57,17.00
2008,07,01,11,58,17.00
2008,07,01,11,59,17.10
2008,07,01,12,00,17.10
2008,07,01,12,01,17.10
2008,07,01,12,02,17.00
2008,07,01,12,03,17.00
2008,07,01,12,04,17.10
2008,07,01,12,05,17.30
2008,07,01,12,06,17.30
2008,07,01,12,07,17.30
2008,07,01,12,08,17.30
2008,07,01,12,09,17.40
2008,07,01,12,10,17.40
2008,07,01,12,11,17.50
2008,07,01,12,12,17.50
2008,07,01,12,13,17.60
2008,07,01,12,14,17.70
2008,07,01,12,15,17.70
2008,07,01,12,16,17.70
2008,07,01,12,17,17.60
2008,07,01,12,18,17.50
2008,07,01,12,19,17.50
2008,07,01,12,20,17.40
2008,07,01,12,21,17.50
2008,07,01,12,22,17.50
2008,07,01,12,23,17.30
2008,07,01,12,24,17.30
2008,07,01,12,25,17.30
2008,07,01,12,26,17.30
2008,07,01,12,27,17.30
2008,07,01,12,28,17.40
2008,07,01,12,29,17.50
2008,07,01,12,30,17.60
2008,07,01,12,31,17.60
2008,07,01,12,32,17.50
2008,07,01,12,33,17.50
2008,07,01,12,34,17.60
2008,07,01,12,35,17.70
2008,07,01,12,36,17.70
2008,07,01,12,37,17.70
2008,07,01,12,38,17.60
2008,07,01,12,39,17.50
2008,07,01,12,40,17.40
2008,07,01,12,41,17.40
2008,07,01,12,42,17.60
2008,07,01,12,43,17.70
2008,07,01,12,44,17.80
2008,07,01,12,45,17.80
2008,07,01,12,46,17.90
2008,07,01,12,47,17.90
2008,07,01,12,48,17.90
2008,07,01,12,49,17.90
2008,07,01,12,50,17.90
2008,07,01,12,51,18.00
2008,07,01,12,52,18.10
2008,07,01,12,53,18.20
2008,07,01,12,54,18.20
2008,07,01,12,55,18.10
2008,07,01,12,56,17.80
2008,07,01,12,57,17.50
2008,07,01,12,58,17.30
2008,07,01,12,59,17.30
2008,07,01,13,00,17.40
2008,07,01,13,01,17.40
2008,07,01,13,02,17.40
2008,07,01,13,03,17.40
2008,07,01,13,04,17.60
2008,07,01,13,05,17.70
2008,07,01,13,06,17.60
2008,07,01,13,07,17.40
2008,07,01,13,08,17.20
2008,07,01,13,09,17.00
2008,07,01,13,10,16.70
2008,07,01,13,11,16.40
2008,07,01,13,12,16.20
2008,07,01,13,13,16.00
2008,07,01,13,14,15.90
2008,07,01,13,15,15.80
2008,07,01,13,16,15.70
2008,07,01,13,17,15.60
2008,07,01,13,18,15.50
2008,07,01,13,19,15.40
2008,07,01,13,20,15.30
2008,07,01,13,21,15.20
2008,07,01,13,22,15.20
2008,07,01,13,23,15.20
2008,07,01,13,24,15.30
2008,07,01,13,25,15.30
2008,07,01,13,26,15.30
2008,07,01,13,27,15.30
2008,07,01,13,28,15.30
2008,07,01,13,29,15.30
2008,07,01,13,30,15.30
2008,07,01,13,31,15.50
2008,07,01,13,32,15.50
2008,07,01,13,33,15.60
2008,07,01,13,34,15.70
2008,07,01,13,35,15.80
2008,07,01,13,36,15.90
2008,07,01,13,37,15.90
2008,07,01,13,38,16.00
2008,07,01,13,39,16.10
2008,07,01,13,40,16.10
2008,07,01,13,41,16.20
2008,07,01,13,42,16.40
2008,07,01,13,43,16.40
2008,07,01,13,44,16.40
2008,07,01,13,45,16.40
2008,07,01,13,46,16.30
2008,07,01,13,47,16.30
2008,07,01,13,48,16.20
2008,07,01,13,49,16.10
2008,07,01,13,50,16.10
2008,07,01,13,51,16.10
2008,07,01,13,52,16.00
2008,07,01,13,53,15.80
2008,07,01,13,54,15.80
2008,07,01,13,55,15.80
2008,07,01,13,56,15.90
2008,07,01,13,57,16.00
2008,07,01,13,58,16.10
2008,07,01,13,59,16.10
2008,07,01,14,00,16.20
2008,07,01,14,01,16.40
2008,07,01,14,02,16.60
2008,07,01,14,03,16.70
2008,07,01,14,04,16.70
2008,07,01,14,05,16.70
2008,07,01,14,06,16.80
2008,07,01,14,07,16.90
2008,07,01,14,08,16.90
2008,07,01,14,09,16.90
2008,07,01,14,10,16.90
2008,07,01,14,11,17.00
2008,07,01,14,12,17.00
2008,07,01,14,13,17.10
2008,07,01,14,14,17.10
2008,07,01,14,15,17.20
2008,07,01,14,16,17.20
2008,07,01,14,17,17.20
2008,07,01,14,18,17.30
2008,07,01,14,19,17.40
2008,07,01,14,20,17.40
2008,07,01,14,21,17.50
2008,07,01,14,22,17.70
2008,07,01,14,23,17.70
2008,07,01,14,24,17.90
2008,07,01,14,25,17.90
2008,07,01,14,26,17.90
2008,07,01,14,27,17.90
2008,07,01,14,28,18.00
2008,07,01,14,29,18.20
2008,07,01,14,30,18.30
2008,07,01,14,31,18.30
2008,07,01,14,32,18.30
2008,07,01,14,33,18.40
2008,07,01,14,34,18.60
2008,07,01,14,35,18.60
2008,07,01,14,36,18.80
2008,07,01,14,37,18.90
2008,07,01,14,38,18.70
2008,07,01,14,39,18.60
2008,07,01,14,40,18.50
2008,07,01,14,41,18.50
2008,07,01,14,42,18.50
2008,07,01,14,43,18.60
2008,07,01,14,44,18.70
2008,07,01,14,45,18.80
2008,07,01,14,46,18.70
2008,07,01,14,47,18.60
2008,07,01,14,48,18.50
2008,07,01,14,49,18.60
2008,07,01,14,50,18.60
2008,07,01,14,51,18.60
2008,07,01,14,52,18.70
2008,07,01,14,53,18.60
2008,07,01,14,54,18.50
2008,07,01,14,55,18.40
2008,07,01,14,56,18.50
2008,07,01,14,57,18.60
2008,07,01,14,58,18.70
2008,07,01,14,59,18.90
2008,07,01,15,00,18.90
2008,07,01,15,01,18.80
2008,07,01,15,02,18.80
2008,07,01,15,03,18.90
2008,07,01,15,04,18.90
2008,07,01,15,05,18.90
2008,07,01,15,06,18.90
2008,07,01,15,07,18.90
2008,07,01,15,08,18.90
2008,07,01,15,09,18.90
2008,07,01,15,10,19.00
2008,07,01,15,11,19.10
2008,07,01,15,12,19.10
2008,07,01,15,13,19.10
2008,07,01,15,14,19.00
2008,07,01,15,15,18.80
2008,07,01,15,16,18.70
2008,07,01,15,17,18.60
2008,07,01,15,18,18.50
2008,07,01,15,19,18.50
2008,07,01,15,20,18.50
2008,07,01,15,21,18.50
2008,07,01,15,22,18.50
2008,07,01,15,23,18.60
2008,07,01,15,24,18.70
2008,07,01,15,25,18.80
2008,07,01,15,26,18.70
2008,07,01,15,27,18.70
2008,07,01,15,28,18.80
2008,07,01,15,29,18.70
2008,07,01,15,30,18.70
2008,07,01,15,31,18.70
2008,07,01,15,32,18.70
2008,07,01,15,33,18.70
2008,07,01,15,34,18.80
2008,07,01,15,35,18.90
2008,07,01,15,36,19.00
2008,07,01,15,37,19.10
2008,07,01,15,38,19.10
2008,07,01,15,39,19.30
2008,07,01,15,40,19.30
2008,07,01,15,41,19.40
2008,07,01,15,42,19.40
2008,07,01,15,43,19.50
2008,07,01,15,44,19.70
2008,07,01,15,45,19.90
2008,07,01,15,46,20.10
2008,07,01,15,47,20.20
2008,07,01,15,48,20.40
2008,07,01,15,49,20.60
2008,07,01,15,50,20.80
2008,07,01,15,51,20.90
2008,07,01,15,52,21.00
2008,07,01,15,53,21.00
2008,07,01,15,54,21.10
2008,07,01,15,55,21.20
2008,07,01,15,56,21.30
2008,07,01,15,57,21.40
2008,07,01,15,58,21.50
2008,07,01,15,59,21.60
2008,07,01,16,00,21.60
2008,07,01,16,01,21.60
2008,07,01,16,02,21.50
2008,07,01,16,03,21.40
2008,07,01,16,04,21.40
2008,07,01,16,05,21.50
2008,07,01,16,06,21.60
2008,07,01,16,07,21.70
2008,07,01,16,08,21.90
2008,07,01,16,09,21.90
2008,07,01,16,10,21.90
2008,07,01,16,11,21.80
2008,07,01,16,12,21.80
2008,07,01,16,13,21.70
2008,07,01,16,14,21.60
2008,07,01,16,15,21.60
2008,07,01,16,16,21.60
2008,07,01,16,17,21.70
2008,07,01,16,18,21.80
2008,07,01,16,19,21.90
2008,07,01,16,20,22.00
2008,07,01,16,21,22.10
2008,07,01,16,22,22.00
2008,07,01,16,23,22.00
2008,07,01,16,24,21.90
2008,07,01,16,25,21.80
2008,07,01,16,26,21.60
2008,07,01,16,27,21.60
2008,07,01,16,28,21.60
2008,07,01,16,29,21.60
2008,07,01,16,30,21.60
2008,07,01,16,31,21.60
2008,07,01,16,32,21.60
2008,07,01,16,33,21.60
2008,07,01,16,34,21.60
2008,07,01,16,35,21.60
2008,07,01,16,36,21.50
2008,07,01,16,37,21.60
2008,07,01,16,38,21.60
2008,07,01,16,39,21.70
2008,07,01,16,40,21.70
2008,07,01,16,41,21.70
2008,07,01,16,42,21.80
2008,07,01,16,43,21.80
2008,07,01,16,44,21.80
2008,07,01,16,45,21.90
2008,07,01,16,46,22.00
2008,07,01,16,47,22.00
2008,07,01,16,48,22.10
2008,07,01,16,49,22.10
2008,07,01,16,50,22.00
2008,07,01,16,51,21.90
2008,07,01,16,52,21.80
2008,07,01,16,53,21.90
2008,07,01,16,54,21.80
2008,07,01,16,55,21.70
2008,07,01,16,56,21.60
2008,07,01,16,57,21.60
2008,07,01,16,58,21.40
2008,07,01,16,59,21.40
2008,07,01,17,00,21.50
2008,07,01,17,01,21.60
2008,07,01,17,02,21.70
2008,07,01,17,03,21.80
2008,07,01,17,04,21.90
2008,07,01,17,05,21.90
2008,07,01,17,06,22.00
2008,07,01,17,07,22.00
2008,07,01,17,08,22.00
2008,07,01,17,09,22.00
2008,07,01,17,10,22.00
2008,07,01,17,11,21.90
2008,07,01,17,12,21.80
2008,07,01,17,13,21.60
2008,07,01,17,14,21.50
2008,07,01,17,15,21.40
2008,07,01,17,16,21.40
2008,07,01,17,17,21.40
2008,07,01,17,18,21.40
2008,07,01,17,19,21.60